Regional Weather Roundup
Issued by NWS

Home | Current Version | Previous Version | Text Only | Print | Product List | Glossary On
Versions: 1 2 3 4 5 6 7 8 9 10 11 12 13 14 15 16 17 18 19 20 21 22 23 24 25 26 27
000
ASUS45 KPSR 270410
RWRAZ

ARIZONA HOURLY REGIONAL WEATHER ROUNDUP
NATIONAL WEATHER SERVICE PHOENIX AZ
900 PM MST FRI AUG 26 2016

NOTE: FAIR INDICATES FEW OR NO CLOUDS BELOW 12,000 FEET WITH NO
SIGNIFICANT WEATHER AND/OR OBSTRUCTIONS TO VISIBILITY.

AZZ001>003-036-270500-
NORTHWEST ARIZONA

CITY           SKY/WX    TMP DP  RH WIND       PRES   REMARKS
BULLHEAD CITY  PTCLDY    95  50  21 SE7       29.80R
KINGMAN        MOCLDY    74  53  48 SE9       30.01R
$$

AZZ004>008-015-016-018-270500-
NORTH CENTRAL ARIZONA

CITY           SKY/WX    TMP DP  RH WIND       PRES   REMARKS
GRAND CANYON   CLOUDY    55  52  89 N3        30.28R
PRESCOTT       PTCLDY    65  58  78 S3        30.15R
FLAGSTAFF      PTCLDY    50  49  96 CALM      30.29R
PAYSON         PTCLDY    66  52  59 E3        30.19R
PAGE           CLOUDY    69  52  54 N7        30.12R
$$

AZZ009>014-017-270500-
NORTHEAST ARIZONA

CITY           SKY/WX    TMP DP  RH WIND       PRES   REMARKS
WINSLOW        PTCLDY    62  52  69 W6        30.15R
SAINT JOHNS    PTCLDY    63  47  55 CALM      30.19R
WINDOW ROCK    PTCLDY    58  46  64 CALM      30.25R
SHOW LOW       CLEAR     55  46  71 S9        30.25S
$$

AZZ023-270500-
GREATER PHOENIX AREA

CITY           SKY/WX    TMP DP  RH WIND       PRES   REMARKS
PHOENIX        MOCLDY    93  58  30 E5        29.83R
BUCKEYE        PTCLDY    90  54  29 NE5       29.84R
LUKE AFB       CLEAR     91  55  29 N15       29.83R
DEER VALLEY    CLEAR     88  54  31 NE8       29.86R
SCOTTSDALE     PTCLDY    91  52  26 E8G20     29.88R
MESA-GATEWAY   CLEAR     84  63  48 E7        29.87R
CHANDLER       CLOUDY    86  66  51 E10       29.85R
$$

AZZ027-028-270500-
SOUTHWEST MARICOPA COUNTY AND PINAL COUNTY

CITY           SKY/WX    TMP DP  RH WIND       PRES   REMARKS
CASA GRANDE    CLEAR     90  57  33 E7        29.89R
GILA BEND      FAIR      92  60  34 S10       29.81R
$$

AZZ503-504-507>509-270500-
SOUTHEAST ARIZONA

CITY           SKY/WX    TMP DP  RH WIND       PRES   REMARKS
TUCSON         CLEAR     83  61  47 E7        29.98R
DAVIS-MONTHAN  CLEAR     79  62  55 SE10      29.97R
NOGALES        CLEAR     74  51  44 SE5       30.07R
SIERRA VISTA   CLEAR     70  54  55 SW8       30.14R
DOUGLAS        MOCLDY    74  56  53 SE6       30.10R
SAFFORD        PTCLDY    70  62  76 N7        30.02R
$$

AZZ020-021-025-026-031-270500-
SOUTHWEST ARIZONA

CITY           SKY/WX    TMP DP  RH WIND       PRES   REMARKS
YUMA           PTCLDY    89  52  28 S9        29.77R
$$

CAZ031-033-041-043-047-048-061-270500-
SOUTHERN CALIFORNIA

CITY           SKY/WX    TMP DP  RH WIND       PRES   REMARKS
DOWNTOWN L.A.  CLEAR     65  57  75 VRB5      29.95R
L.A. AIRPORT   PTCLDY    65  58  78 W9        29.96R
SAN DIEGO      MOCLDY    68  56  65 NW6       29.98R
BURBANK        CLEAR     64  57  78 S6        29.95R
ONTARIO        CLEAR     66  56  70 W12       29.95R
RIVERSIDE      CLEAR     67  55  65 W5        29.95R
PALM SPRINGS   CLEAR     89  50  26 NW20      29.79R
EL CENTRO NAS  CLEAR     89  52  28 S9        29.76R
IMPERIAL       CLEAR     94  55  26 S10       29.74R
BLYTHE         CLEAR     93  56  28 S10       29.77R
NEEDLES        PTCLDY    95  54  25 SE10      29.81R
$$

NVZ020-UTZ003-270500-
SOUTHERN NEVADA-UTAH

CITY           SKY/WX    TMP DP  RH WIND       PRES   REMARKS
LAS VEGAS      CLOUDY    86  46  24 SW12      29.87R
SALT LAKE CITY CLEAR     72  29  20 S7        30.00R
$$

NMZ009-TXZ055-270500-
NEW MEXICO-WEST TEXAS

CITY           SKY/WX    TMP DP  RH WIND       PRES   REMARKS
ALBUQUERQUE    PTCLDY    70  48  45 SE6       30.16S
EL PASO        PTCLDY    75  59  57 N20       30.10R
$$


........................KEY........................
SKY/WX - SKY CONDITION/WEATHER
TMP    - TEMPERATURE IN FAHRENHEIT
DP     - DEW POINT IN FAHRENHEIT
RH     - RELATIVE HUMIDITY IN PERCENT
WIND   - DIRECTION AND SPEED IN MILES PER HOUR (MPH)
VRB    - VARIABLE WIND DIRECTION
PRES   - MEAN SEA LEVEL PRESSURE IN INCHES OF MERCURY
         F - FALLING PRESSURE   R - RISING PRESSURE
         S - STEADY PRESSURE
VSB    - VISIBILITY IN MILES
HX     - HEAT INDEX IN FAHRENHEIT
WCI    - WIND CHILL INDEX IN FAHRENHEIT
TC     - TEMPERATURE IN CELSIUS WHICH IS ALSO KNOWN AS
         TEMPERATURE IN CENTIGRADE
AFB    - AIR FORCE BASE
         LUKE AFB IS LUKE AIR FORCE BASE
         DAVIS-MONTHAN IS DAVIS-MONTHAN AIR FORCE BASE
NAS    - NAVAL AIR STATION
         EL CENTRO NAS IS EL CENTRO NAVAL AIR STATION
N/A    - NOT AVAILABLE





USA.gov is the U.S. government's official web portal to all federal, state and local government web resources and services.